This is the latest recevied weather packets stored in our database for station/object KB1RMA-13. If no packets are shown the sender has not sent any weather packets the latest 10 day(s).
| Time | Temp. | Humidity | Pressure | Rain* | Wind** | Luminosity | Snow |
|---|---|---|---|---|---|---|---|
| 1777891220 | 8.33° C | 60% | 1011 hPa | 0 mm | - | 23 W/m² | - |
| 1777890919 | 8.33° C | 61% | 1011.1 hPa | 0 mm | - | 52 W/m² | - |
| 1777890615 | 7.78° C | 61% | 1011 hPa | 0 mm | - | 33 W/m² | - |
| 1777890310 | 7.78° C | 61% | 1011.1 hPa | 0 mm | - | 28 W/m² | - |
| 1777890007 | 7.78° C | 61% | 1010.7 hPa | 0 mm | - | 26 W/m² | - |
| 1777889705 | 7.78° C | 62% | 1010.8 hPa | 0 mm | - | 25 W/m² | - |
| 1777889402 | 7.78° C | 62% | 1011 hPa | 0 mm | - | 18 W/m² | - |
| 1777889100 | 7.78° C | 62% | 1010.7 hPa | 0 mm | - | 10 W/m² | - |
| 1777888796 | 7.78° C | 62% | 1010.9 hPa | 0 mm | - | 9 W/m² | - |
| 1777888493 | 7.22° C | 62% | 1010.7 hPa | 0 mm | - | 9 W/m² | - |
| 1777888189 | 7.22° C | 63% | 1010.8 hPa | 0 mm | - | 7 W/m² | - |
| 1777887887 | 6.67° C | 65% | 1010.6 hPa | 0 mm | - | 3 W/m² | - |
| 1777887584 | 6.11° C | 65% | 1010.7 hPa | 0 mm | - | 3 W/m² | - |
| 1777887283 | 6.11° C | 65% | 1010.7 hPa | 0 mm | - | 3 W/m² | - |
| 1777886980 | 6.11° C | 64% | 1010.6 hPa | 0 mm | - | 2 W/m² | - |
| 1777886676 | 6.67° C | 64% | 1010.6 hPa | 0 mm | - | 1 W/m² | - |
| 1777886373 | 6.11° C | 64% | 1010.6 hPa | 0 mm | - | 0 W/m² | - |
| 1777886071 | 6.11° C | 65% | 1010.5 hPa | 0 mm | - | 0 W/m² | - |
| 1777885769 | 6.11° C | 65% | 1010.6 hPa | 0 mm | - | 0 W/m² | - |
| 1777885467 | 6.11° C | 64% | 1010.4 hPa | 0 mm | - | 0 W/m² | - |
| 1777885166 | 6.67° C | 63% | 1010.5 hPa | 0 mm | - | 0 W/m² | - |
| 1777884862 | 6.67° C | 62% | 1010.6 hPa | 0 mm | - | 0 W/m² | - |
| 1777884559 | 6.67° C | 62% | 1010.6 hPa | 0 mm | - | 0 W/m² | - |
| 1777884256 | 6.67° C | 62% | 1010.5 hPa | 0 mm | - | 0 W/m² | - |
| 1777883951 | 7.22° C | 61% | 1010.5 hPa | 0 mm | - | 0 W/m² | - |
* Rain latest hour (hover to see other rain measurements)
** Current wind speed in m/s (hover to see current wind gust speed)